Time,TemperatureF,DewpointF,PressureIn,WindDirection,WindDirectionDegrees,WindSpeedMPH,WindSpeedGustMPH,Humidity,HourlyPrecipIn,Conditions,Clouds,dailyrainin,SoftwareType,DateUTC
2013-01-25 00:00:00,29.8,16.9,27.64,NNE,16,0.0,0.0,58,0.00,,---,0.00,VWS V14.01,2013-01-25 08:00:00,
2013-01-25 00:05:00,29.8,16.9,27.61,NNE,16,0.0,0.0,58,0.00,,---,0.00,VWS V14.01,2013-01-25 08:05:00,
2013-01-25 00:10:00,30.0,17.4,27.61,NNE,16,0.0,0.0,59,0.00,,---,0.00,VWS V14.01,2013-01-25 08:10:00,
2013-01-25 00:15:00,29.8,17.3,27.61,NNE,16,0.0,0.0,59,0.00,,---,0.00,VWS V14.01,2013-01-25 08:15:00,
2013-01-25 00:20:00,30.0,17.4,27.61,NNE,16,0.0,0.0,59,0.00,,---,0.00,VWS V14.01,2013-01-25 08:20:00,
2013-01-25 00:25:00,30.0,17.4,27.61,NNE,16,0.0,0.0,59,0.00,,---,0.00,VWS V14.01,2013-01-25 08:25:00,
2013-01-25 00:30:00,30.0,17.4,27.61,NNE,16,0.0,0.0,59,0.00,,---,0.00,VWS V14.01,2013-01-25 08:30:00,
2013-01-25 00:35:00,30.2,17.6,27.61,NNE,16,0.0,0.0,59,0.00,,---,0.00,VWS V14.01,2013-01-25 08:35:00,
2013-01-25 00:40:00,30.2,17.6,27.61,NNE,16,0.0,0.0,59,0.00,,---,0.00,VWS V14.01,2013-01-25 08:40:00,
2013-01-25 00:45:00,30.2,17.6,27.61,NNE,16,0.0,0.0,59,0.00,,---,0.00,VWS V14.01,2013-01-25 08:45:00,
2013-01-25 00:50:00,30.4,17.4,27.61,NNE,16,0.0,0.0,58,0.00,,---,0.00,VWS V14.01,2013-01-25 08:50:00,
2013-01-25 00:55:00,30.4,17.4,27.61,NNE,16,0.0,0.0,58,0.00,,---,0.00,VWS V14.01,2013-01-25 08:55:00,
2013-01-25 01:00:00,30.4,17.4,27.61,NNE,16,0.0,0.0,58,0.00,,---,0.00,VWS V14.01,2013-01-25 09:00:00,
2013-01-25 01:05:00,30.6,17.6,27.61,NNE,16,0.0,0.0,58,0.00,,---,0.00,VWS V14.01,2013-01-25 09:05:00,
2013-01-25 01:10:00,30.6,17.6,27.61,NNE,16,0.0,0.0,58,0.00,,---,0.00,VWS V14.01,2013-01-25 09:10:00,
2013-01-25 01:15:00,30.7,18.1,27.61,NNE,16,0.0,0.0,59,0.00,,---,0.00,VWS V14.01,2013-01-25 09:15:00,
2013-01-25 01:20:00,31.1,18.9,27.61,NNE,16,0.0,0.0,60,0.00,,---,0.00,VWS V14.01,2013-01-25 09:20:00,
2013-01-25 01:25:00,31.5,19.6,27.61,NNE,16,0.0,0.0,61,0.00,,---,0.00,VWS V14.01,2013-01-25 09:25:00,
2013-01-25 01:30:00,32.0,20.9,27.61,NNE,16,0.0,0.0,63,0.00,,---,0.00,VWS V14.01,2013-01-25 09:30:00,
2013-01-25 01:35:00,32.4,21.6,27.61,NNE,16,0.0,0.0,64,0.00,,---,0.00,VWS V14.01,2013-01-25 09:35:00,
2013-01-25 01:40:00,32.5,21.7,27.61,NNE,16,0.0,0.0,64,0.00,,---,0.00,VWS V14.01,2013-01-25 09:40:00,
2013-01-25 01:45:00,32.7,21.9,27.61,NNE,16,0.0,0.0,64,0.00,,---,0.00,VWS V14.01,2013-01-25 09:45:00,
2013-01-25 01:50:00,33.1,22.6,27.61,NNE,16,0.0,0.0,65,0.00,,---,0.00,VWS V14.01,2013-01-25 09:50:00,
2013-01-25 01:55:00,33.1,22.6,27.61,NNE,17,0.0,0.0,65,0.00,,---,0.00,VWS V14.01,2013-01-25 09:55:00,
2013-01-25 02:00:00,33.3,22.8,27.61,NNE,16,0.0,0.0,65,0.00,,---,0.00,VWS V14.01,2013-01-25 10:00:00,
2013-01-25 02:05:00,33.4,23.3,27.61,NNE,17,0.0,0.0,66,0.00,,---,0.00,VWS V14.01,2013-01-25 10:05:00,
2013-01-25 02:10:00,33.4,23.3,27.61,NNE,17,0.0,0.0,66,0.00,,---,0.00,VWS V14.01,2013-01-25 10:10:00,
2013-01-25 02:15:00,33.4,23.3,27.61,NNE,17,0.0,0.0,66,0.00,,---,0.00,VWS V14.01,2013-01-25 10:15:00,
2013-01-25 02:20:00,33.6,23.5,27.61,NNE,17,0.0,0.0,66,0.00,,---,0.00,VWS V14.01,2013-01-25 10:20:00,
2013-01-25 02:25:00,33.6,23.5,27.61,NNE,17,0.0,0.0,66,0.00,,---,0.00,VWS V14.01,2013-01-25 10:25:00,
2013-01-25 02:30:00,33.8,23.7,27.61,NNE,17,0.0,0.0,66,0.00,,---,0.00,VWS V14.01,2013-01-25 10:30:00,
2013-01-25 02:35:00,33.8,23.7,27.61,NNE,18,0.0,0.0,66,0.00,,---,0.00,VWS V14.01,2013-01-25 10:35:00,
2013-01-25 02:40:00,34.2,24.4,27.61,NNE,30,0.0,0.0,67,0.00,,---,0.00,VWS V14.01,2013-01-25 10:40:00,
2013-01-25 02:45:00,34.2,24.4,27.61,NE,37,0.0,0.0,67,0.00,,---,0.00,VWS V14.01,2013-01-25 10:45:00,
2013-01-25 02:50:00,34.3,24.5,27.58,South,173,0.0,0.0,67,0.00,,---,0.00,VWS V14.01,2013-01-25 10:50:00,
2013-01-25 02:55:00,34.5,24.7,27.58,South,171,0.0,0.0,67,0.00,,---,0.00,VWS V14.01,2013-01-25 10:55:00,
2013-01-25 03:00:00,34.5,24.7,27.58,SSE,153,0.0,0.0,67,0.00,,---,0.00,VWS V14.01,2013-01-25 11:00:00,
2013-01-25 03:05:00,34.7,24.9,27.58,SSE,159,0.0,0.0,67,0.00,,---,0.00,VWS V14.01,2013-01-25 11:05:00,
2013-01-25 03:10:00,34.9,25.4,27.58,SSE,156,0.0,0.0,68,0.00,,---,0.00,VWS V14.01,2013-01-25 11:10:00,
2013-01-25 03:15:00,34.7,25.2,27.58,SSE,156,0.0,0.0,68,0.00,,---,0.00,VWS V14.01,2013-01-25 11:15:00,
2013-01-25 03:20:00,34.5,25.1,27.58,SE,143,0.0,0.0,68,0.00,,---,0.00,VWS V14.01,2013-01-25 11:20:00,
2013-01-25 03:25:00,34.7,25.2,27.58,SE,143,0.0,0.0,68,0.00,,---,0.00,VWS V14.01,2013-01-25 11:25:00,
2013-01-25 03:30:00,34.9,25.4,27.58,SE,143,0.0,0.0,68,0.00,,---,0.00,VWS V14.01,2013-01-25 11:30:00,
2013-01-25 03:35:00,34.9,25.4,27.58,SE,143,0.0,0.0,68,0.00,,---,0.00,VWS V14.01,2013-01-25 11:35:00,
2013-01-25 03:40:00,34.9,25.4,27.58,SE,143,0.0,0.0,68,0.00,,---,0.00,VWS V14.01,2013-01-25 11:40:00,
2013-01-25 03:45:00,34.9,25.4,27.58,South,179,0.0,0.0,68,0.00,,---,0.00,VWS V14.01,2013-01-25 11:45:00,
2013-01-25 03:50:00,35.1,25.6,27.58,East,99,0.0,0.0,68,0.00,,---,0.00,VWS V14.01,2013-01-25 11:50:00,
2013-01-25 03:55:00,35.1,25.6,27.58,SE,133,0.0,0.0,68,0.00,,---,0.00,VWS V14.01,2013-01-25 11:55:00,
2013-01-25 04:00:00,35.1,25.6,27.58,SE,138,0.0,0.0,68,0.00,,---,0.00,VWS V14.01,2013-01-25 12:00:00,
2013-01-25 04:05:00,34.9,25.4,27.58,SE,138,0.0,0.0,68,0.00,,---,0.00,VWS V14.01,2013-01-25 12:05:00,
2013-01-25 04:10:00,34.9,25.4,27.58,SSW,196,0.0,0.0,68,0.00,,---,0.00,VWS V14.01,2013-01-25 12:10:00,
2013-01-25 04:15:00,34.7,25.2,27.58,SW,220,0.0,0.0,68,0.00,,---,0.00,VWS V14.01,2013-01-25 12:15:00,
2013-01-25 04:20:00,34.7,25.2,27.58,SW,219,0.0,0.0,68,0.00,,---,0.00,VWS V14.01,2013-01-25 12:20:00,
2013-01-25 04:25:00,34.3,24.9,27.58,NW,320,0.0,0.0,68,0.00,,---,0.00,VWS V14.01,2013-01-25 12:25:00,
2013-01-25 04:30:00,34.0,24.2,27.58,NW,321,0.0,0.0,67,0.00,,---,0.00,VWS V14.01,2013-01-25 12:30:00,
2013-01-25 04:35:00,33.8,24.0,27.58,North,350,0.0,0.0,67,0.00,,---,0.00,VWS V14.01,2013-01-25 12:35:00,
2013-01-25 04:40:00,33.3,23.5,27.58,NE,55,0.0,0.0,67,0.00,,---,0.00,VWS V14.01,2013-01-25 12:40:00,
2013-01-25 04:45:00,33.1,23.3,27.58,NE,55,0.0,0.0,67,0.00,,---,0.00,VWS V14.01,2013-01-25 12:45:00,
2013-01-25 04:50:00,32.9,23.2,27.58,NE,55,0.0,0.0,67,0.00,,---,0.00,VWS V14.01,2013-01-25 12:50:00,
2013-01-25 04:55:00,33.1,23.3,27.58,NE,55,0.0,0.0,67,0.00,,---,0.00,VWS V14.01,2013-01-25 12:55:00,
2013-01-25 05:00:00,33.1,23.3,27.58,NNE,28,0.0,0.0,67,0.00,,---,0.00,VWS V14.01,2013-01-25 13:00:00,
2013-01-25 05:05:00,32.9,23.2,27.58,NNW,343,0.0,0.0,67,0.00,,---,0.00,VWS V14.01,2013-01-25 13:05:00,
2013-01-25 05:10:00,32.7,23.0,27.58,NNE,20,0.0,0.0,67,0.00,,---,0.00,VWS V14.01,2013-01-25 13:10:00,
2013-01-25 05:15:00,32.5,22.8,27.58,NE,47,0.0,0.0,67,0.00,,---,0.00,VWS V14.01,2013-01-25 13:15:00,
2013-01-25 05:20:00,32.5,22.8,27.58,NE,47,0.0,0.0,67,0.00,,---,0.00,VWS V14.01,2013-01-25 13:20:00,
2013-01-25 05:25:00,32.5,22.8,27.58,NE,47,0.0,0.0,67,0.00,,---,0.00,VWS V14.01,2013-01-25 13:25:00,
2013-01-25 05:30:00,32.4,22.3,27.58,NE,48,0.0,0.0,66,0.00,,---,0.00,VWS V14.01,2013-01-25 13:30:00,
2013-01-25 05:35:00,32.4,22.3,27.58,NE,47,0.0,0.0,66,0.00,,---,0.00,VWS V14.01,2013-01-25 13:35:00,
2013-01-25 05:40:00,32.4,22.3,27.58,NE,47,0.0,0.0,66,0.00,,---,0.00,VWS V14.01,2013-01-25 13:40:00,
2013-01-25 05:45:00,32.2,22.1,27.58,NE,48,0.0,0.0,66,0.00,,---,0.00,VWS V14.01,2013-01-25 13:45:00,
2013-01-25 05:50:00,32.2,22.1,27.58,NE,47,0.0,0.0,66,0.00,,---,0.00,VWS V14.01,2013-01-25 13:50:00,
2013-01-25 05:55:00,32.4,22.3,27.58,NE,48,0.0,0.0,66,0.00,,---,0.00,VWS V14.01,2013-01-25 13:55:00,
2013-01-25 06:00:00,32.4,22.3,27.58,NE,47,0.0,0.0,66,0.00,,---,0.00,VWS V14.01,2013-01-25 14:00:00,
2013-01-25 06:05:00,32.5,22.8,27.58,NE,47,0.0,0.0,67,0.00,,---,0.00,VWS V14.01,2013-01-25 14:05:00,
2013-01-25 06:10:00,33.8,24.4,27.58,NE,48,0.0,0.0,68,0.00,,---,0.00,VWS V14.01,2013-01-25 14:10:00,
2013-01-25 06:15:00,34.3,25.2,27.58,ENE,58,0.0,0.0,69,0.00,,---,0.00,VWS V14.01,2013-01-25 14:15:00,
2013-01-25 06:20:00,34.9,25.8,27.58,SE,130,0.0,0.0,69,0.00,,---,0.00,VWS V14.01,2013-01-25 14:20:00,
2013-01-25 06:25:00,35.1,25.9,27.58,SSE,147,0.0,0.0,69,0.00,,---,0.00,VWS V14.01,2013-01-25 14:25:00,
2013-01-25 06:30:00,35.1,25.9,27.58,South,174,0.0,0.0,69,0.00,,---,0.00,VWS V14.01,2013-01-25 14:30:00,
2013-01-25 06:35:00,35.1,25.9,27.58,South,175,0.0,0.0,69,0.00,,---,0.00,VWS V14.01,2013-01-25 14:35:00,
2013-01-25 06:40:00,35.1,25.9,27.58,South,174,0.0,0.0,69,0.00,,---,0.00,VWS V14.01,2013-01-25 14:40:00,
2013-01-25 06:45:00,35.1,25.9,27.58,South,173,0.0,0.0,69,0.00,,---,0.00,VWS V14.01,2013-01-25 14:45:00,
2013-01-25 06:50:00,35.1,25.9,27.58,South,174,0.0,0.0,69,0.00,,---,0.00,VWS V14.01,2013-01-25 14:50:00,
2013-01-25 06:55:00,35.1,25.9,27.58,South,174,0.0,0.0,69,0.00,,---,0.00,VWS V14.01,2013-01-25 14:55:00,
2013-01-25 07:00:00,35.1,25.9,27.58,South,174,0.0,0.0,69,0.00,,---,0.00,VWS V14.01,2013-01-25 15:00:00,
2013-01-25 07:05:00,34.9,25.8,27.58,South,174,0.0,0.0,69,0.00,,---,0.00,VWS V14.01,2013-01-25 15:05:00,
2013-01-25 07:10:00,34.9,25.8,27.58,South,178,0.0,0.0,69,0.00,,---,0.00,VWS V14.01,2013-01-25 15:10:00,
2013-01-25 07:15:00,34.9,25.8,27.58,South,184,0.0,2.2,69,0.00,,---,0.00,VWS V14.01,2013-01-25 15:15:00,
2013-01-25 07:20:00,34.9,25.8,27.58,South,189,0.0,2.2,69,0.00,,---,0.00,VWS V14.01,2013-01-25 15:20:00,
2013-01-25 07:25:00,34.9,25.8,27.58,SSW,211,2.7,4.5,69,0.00,,---,0.00,VWS V14.01,2013-01-25 15:25:00,
2013-01-25 07:30:00,34.9,25.8,27.58,South,182,2.7,3.6,69,0.00,,---,0.00,VWS V14.01,2013-01-25 15:30:00,
2013-01-25 07:35:00,35.1,25.9,27.58,SSW,202,2.7,2.7,69,0.00,,---,0.00,VWS V14.01,2013-01-25 15:35:00,
2013-01-25 07:40:00,35.2,26.1,27.58,South,187,4.9,4.9,69,0.00,,---,0.00,VWS V14.01,2013-01-25 15:40:00,
2013-01-25 07:45:00,35.4,26.3,27.58,South,186,2.7,2.7,69,0.00,,---,0.00,VWS V14.01,2013-01-25 15:45:00,
2013-01-25 07:50:00,35.4,26.3,27.55,SSW,195,3.1,4.0,69,0.00,,---,0.00,VWS V14.01,2013-01-25 15:50:00,
2013-01-25 07:55:00,35.6,26.5,27.55,South,187,4.0,5.4,69,0.00,,---,0.00,VWS V14.01,2013-01-25 15:55:00,
2013-01-25 08:00:00,35.6,26.1,27.55,South,186,0.0,0.0,68,0.00,,---,0.00,VWS V14.01,2013-01-25 16:00:00,
2013-01-25 08:05:00,35.8,26.3,27.58,South,191,2.2,2.2,68,0.00,,---,0.00,VWS V14.01,2013-01-25 16:05:00,
2013-01-25 08:10:00,35.6,25.7,27.58,SSW,193,0.0,0.0,67,0.00,,---,0.00,VWS V14.01,2013-01-25 16:10:00,
2013-01-25 08:15:00,35.6,25.4,27.58,SSW,192,2.2,2.7,66,0.00,,---,0.00,VWS V14.01,2013-01-25 16:15:00,
2013-01-25 08:20:00,35.8,25.2,27.58,SSW,205,0.0,0.0,65,0.00,,---,0.00,VWS V14.01,2013-01-25 16:20:00,
2013-01-25 08:25:00,35.8,25.2,27.58,SSW,204,0.0,0.0,65,0.00,,---,0.00,VWS V14.01,2013-01-25 16:25:00,
2013-01-25 08:30:00,35.8,25.2,27.58,SSW,204,0.0,0.0,65,0.00,,---,0.00,VWS V14.01,2013-01-25 16:30:00,
2013-01-25 08:35:00,35.6,24.6,27.58,SSW,205,0.0,0.0,64,0.00,,---,0.00,VWS V14.01,2013-01-25 16:35:00,
2013-01-25 08:40:00,35.6,24.6,27.58,SSW,204,0.0,0.0,64,0.00,,---,0.00,VWS V14.01,2013-01-25 16:40:00,
2013-01-25 08:45:00,35.8,24.8,27.58,SSW,204,0.0,0.0,64,0.00,,---,0.00,VWS V14.01,2013-01-25 16:45:00,
2013-01-25 08:50:00,35.8,24.8,27.58,SSW,204,0.0,0.0,64,0.00,,---,0.00,VWS V14.01,2013-01-25 16:50:00,
2013-01-25 08:55:00,36.0,25.4,27.58,SSW,205,0.0,0.0,65,0.00,,---,0.00,VWS V14.01,2013-01-25 16:55:00,
2013-01-25 09:00:00,36.0,25.4,27.58,SSW,204,0.0,0.0,65,0.00,,---,0.00,VWS V14.01,2013-01-25 17:00:00,
2013-01-25 09:05:00,36.0,25.0,27.58,SSW,204,0.0,0.0,64,0.00,,---,0.00,VWS V14.01,2013-01-25 17:05:00,
2013-01-25 09:10:00,36.3,25.7,27.58,SSW,205,0.0,0.0,65,0.00,,---,0.00,VWS V14.01,2013-01-25 17:10:00,
2013-01-25 09:15:00,36.5,25.9,27.58,South,177,0.0,0.0,65,0.00,,---,0.00,VWS V14.01,2013-01-25 17:15:00,
2013-01-25 09:20:00,36.7,26.0,27.58,South,177,0.0,0.0,65,0.00,,---,0.00,VWS V14.01,2013-01-25 17:20:00,
2013-01-25 09:25:00,36.9,26.2,27.58,South,176,0.0,0.0,65,0.00,,---,0.00,VWS V14.01,2013-01-25 17:25:00,
2013-01-25 09:30:00,36.9,25.8,27.58,South,177,2.2,2.2,64,0.00,,---,0.00,VWS V14.01,2013-01-25 17:30:00,
2013-01-25 09:35:00,37.0,26.0,27.58,South,180,0.0,0.0,64,0.00,,---,0.00,VWS V14.01,2013-01-25 17:35:00,
2013-01-25 09:40:00,37.0,25.6,27.58,South,180,0.0,0.0,63,0.00,,---,0.00,VWS V14.01,2013-01-25 17:40:00,
2013-01-25 09:45:00,37.0,25.2,27.58,South,181,2.2,2.2,62,0.00,,---,0.00,VWS V14.01,2013-01-25 17:45:00,
2013-01-25 09:50:00,37.0,24.5,27.58,South,181,0.0,0.0,60,0.00,,---,0.00,VWS V14.01,2013-01-25 17:50:00,
2013-01-25 09:55:00,37.0,24.1,27.58,SSW,205,0.0,0.0,59,0.00,,---,0.00,VWS V14.01,2013-01-25 17:55:00,
2013-01-25 10:00:00,37.2,23.8,27.58,SSW,202,0.0,0.0,58,0.00,,---,0.00,VWS V14.01,2013-01-25 18:00:00,
2013-01-25 10:05:00,37.2,23.4,27.58,South,179,5.4,5.4,57,0.00,,---,0.00,VWS V14.01,2013-01-25 18:05:00,
2013-01-25 10:10:00,37.2,22.1,27.58,South,187,2.7,3.1,54,0.00,,---,0.00,VWS V14.01,2013-01-25 18:10:00,
2013-01-25 10:15:00,37.4,20.5,27.58,SSW,197,2.7,3.1,50,0.00,,---,0.00,VWS V14.01,2013-01-25 18:15:00,
2013-01-25 10:20:00,37.4,20.0,27.58,South,184,4.0,4.0,49,0.00,,---,0.00,VWS V14.01,2013-01-25 18:20:00,
2013-01-25 10:25:00,37.6,19.7,27.58,SSW,199,2.7,2.7,48,0.00,,---,0.00,VWS V14.01,2013-01-25 18:25:00,
2013-01-25 10:30:00,37.6,19.2,27.58,South,188,4.0,4.0,47,0.00,,---,0.00,VWS V14.01,2013-01-25 18:30:00,
2013-01-25 10:35:00,37.6,18.7,27.55,SSW,192,3.1,3.1,46,0.00,,---,0.00,VWS V14.01,2013-01-25 18:35:00,
2013-01-25 10:40:00,37.8,18.9,27.55,South,185,3.1,3.1,46,0.00,,---,0.00,VWS V14.01,2013-01-25 18:40:00,
2013-01-25 10:45:00,37.9,18.0,27.55,SSW,207,6.7,6.7,44,0.00,,---,0.00,VWS V14.01,2013-01-25 18:45:00,
2013-01-25 10:50:00,37.9,17.5,27.55,SSW,206,3.1,4.0,43,0.00,,---,0.00,VWS V14.01,2013-01-25 18:50:00,
2013-01-25 10:55:00,38.1,17.6,27.55,SSW,202,5.8,5.8,43,0.00,,---,0.00,VWS V14.01,2013-01-25 18:55:00,
2013-01-25 11:00:00,38.1,17.6,27.55,South,187,5.8,6.3,43,0.00,,---,0.00,VWS V14.01,2013-01-25 19:00:00,
2013-01-25 11:05:00,38.1,17.6,27.55,South,171,4.0,4.0,43,0.00,,---,0.00,VWS V14.01,2013-01-25 19:05:00,
2013-01-25 11:10:00,38.5,17.4,27.55,South,183,4.0,5.8,42,0.00,,---,0.00,VWS V14.01,2013-01-25 19:10:00,
2013-01-25 11:15:00,38.5,17.4,27.55,South,182,6.3,6.3,42,0.00,,---,0.00,VWS V14.01,2013-01-25 19:15:00,
2013-01-25 11:20:00,38.5,17.4,27.55,South,185,3.6,4.0,42,0.00,,---,0.00,VWS V14.01,2013-01-25 19:20:00,
2013-01-25 11:25:00,38.5,17.4,27.55,South,184,3.6,4.9,42,0.00,,---,0.00,VWS V14.01,2013-01-25 19:25:00,
2013-01-25 11:30:00,38.5,17.4,27.55,South,171,3.6,3.6,42,0.00,,---,0.00,VWS V14.01,2013-01-25 19:30:00,
2013-01-25 11:35:00,38.5,17.4,27.55,South,177,2.7,4.0,42,0.00,,---,0.00,VWS V14.01,2013-01-25 19:35:00,
2013-01-25 11:40:00,38.5,17.4,27.55,South,183,3.6,5.4,42,0.00,,---,0.00,VWS V14.01,2013-01-25 19:40:00,
2013-01-25 11:45:00,38.5,17.4,27.55,South,181,3.1,5.4,42,0.00,,---,0.00,VWS V14.01,2013-01-25 19:45:00,
2013-01-25 11:50:00,38.5,17.4,27.52,SSW,192,3.6,6.3,42,0.00,,---,0.00,VWS V14.01,2013-01-25 19:50:00,
2013-01-25 11:55:00,38.5,17.4,27.52,South,178,4.0,4.0,42,0.00,,---,0.00,VWS V14.01,2013-01-25 19:55:00,
2013-01-25 12:00:00,38.5,17.4,27.52,SW,214,6.7,8.1,42,0.00,,---,0.00,VWS V14.01,2013-01-25 20:00:00,
2013-01-25 12:05:00,38.5,17.4,27.52,SSW,199,3.6,3.6,42,0.00,,---,0.00,VWS V14.01,2013-01-25 20:05:00,
2013-01-25 12:10:00,38.5,17.4,27.52,SSW,197,5.4,6.3,42,0.00,,---,0.00,VWS V14.01,2013-01-25 20:10:00,
2013-01-25 12:15:00,38.5,17.4,27.52,SSW,199,5.8,5.8,42,0.00,,---,0.00,VWS V14.01,2013-01-25 20:15:00,
2013-01-25 12:20:00,38.5,17.4,27.52,SSW,213,5.4,6.3,42,0.00,,---,0.00,VWS V14.01,2013-01-25 20:20:00,
2013-01-25 12:25:00,38.5,17.4,27.52,SSW,193,7.6,7.6,42,0.00,,---,0.00,VWS V14.01,2013-01-25 20:25:00,
2013-01-25 12:30:00,38.5,17.4,27.52,SSW,209,5.4,5.8,42,0.00,,---,0.00,VWS V14.01,2013-01-25 20:30:00,
2013-01-25 12:35:00,38.5,17.4,27.52,SSW,195,3.6,4.9,42,0.00,,---,0.00,VWS V14.01,2013-01-25 20:35:00,
2013-01-25 12:40:00,38.5,17.4,27.52,SW,214,4.9,4.9,42,0.00,,---,0.00,VWS V14.01,2013-01-25 20:40:00,
2013-01-25 12:45:00,38.5,17.4,27.52,South,172,2.2,2.7,42,0.00,,---,0.00,VWS V14.01,2013-01-25 20:45:00,
2013-01-25 12:50:00,38.5,17.4,27.52,SSW,200,5.4,5.4,42,0.00,,---,0.00,VWS V14.01,2013-01-25 20:50:00,
2013-01-25 12:55:00,38.5,17.4,27.52,South,182,2.2,3.1,42,0.00,,---,0.00,VWS V14.01,2013-01-25 20:55:00,
2013-01-25 13:00:00,38.5,17.4,27.52,South,187,3.6,4.9,42,0.00,,---,0.00,VWS V14.01,2013-01-25 21:00:00,
2013-01-25 13:05:00,38.5,17.4,27.52,SSE,164,3.6,5.8,42,0.00,,---,0.00,VWS V14.01,2013-01-25 21:05:00,
2013-01-25 13:10:00,38.5,17.4,27.52,SSW,192,3.6,3.6,42,0.00,,---,0.00,VWS V14.01,2013-01-25 21:10:00,
2013-01-25 13:15:00,38.5,17.4,27.52,SSW,203,5.4,7.6,42,0.00,,---,0.00,VWS V14.01,2013-01-25 21:15:00,
2013-01-25 13:20:00,38.5,17.4,27.52,SSW,201,6.3,6.3,42,0.00,,---,0.00,VWS V14.01,2013-01-25 21:20:00,
2013-01-25 13:25:00,38.5,17.4,27.52,South,173,4.0,5.4,42,0.00,,---,0.00,VWS V14.01,2013-01-25 21:25:00,
2013-01-25 13:30:00,38.5,17.4,27.52,SSW,199,4.9,5.4,42,0.00,,---,0.00,VWS V14.01,2013-01-25 21:30:00,
2013-01-25 13:35:00,38.5,17.4,27.52,SSW,199,4.0,4.0,42,0.00,,---,0.00,VWS V14.01,2013-01-25 21:35:00,
2013-01-25 13:40:00,38.5,17.4,27.52,South,183,2.7,3.1,42,0.00,,---,0.00,VWS V14.01,2013-01-25 21:40:00,
2013-01-25 13:45:00,38.8,21.3,27.52,SSW,192,0.0,0.0,49,0.00,,---,0.00,VWS V14.01,2013-01-25 21:45:00,
2013-01-25 13:50:00,38.8,21.3,27.49,SSW,200,3.1,3.1,49,0.00,,---,0.00,VWS V14.01,2013-01-25 21:50:00,
2013-01-25 13:55:00,38.7,22.1,27.49,SSW,213,3.6,5.4,51,0.00,,---,0.00,VWS V14.01,2013-01-25 21:55:00,
2013-01-25 14:00:00,38.5,22.4,27.49,South,177,6.7,6.7,52,0.00,,---,0.00,VWS V14.01,2013-01-25 22:00:00,
2013-01-25 14:05:00,38.3,23.6,27.49,South,185,6.3,6.3,55,0.00,,---,0.00,VWS V14.01,2013-01-25 22:05:00,
2013-01-25 14:10:00,38.1,23.4,27.49,SSW,197,5.4,5.4,55,0.00,,---,0.00,VWS V14.01,2013-01-25 22:10:00,
2013-01-25 14:15:00,38.1,23.8,27.49,SSW,203,4.9,5.8,56,0.00,,---,0.00,VWS V14.01,2013-01-25 22:15:00,
2013-01-25 14:20:00,37.9,23.7,27.49,SSW,202,3.6,3.6,56,0.00,,---,0.00,VWS V14.01,2013-01-25 22:20:00,
2013-01-25 14:25:00,37.8,23.5,27.49,SSW,208,3.6,3.6,56,0.00,,---,0.00,VWS V14.01,2013-01-25 22:25:00,
2013-01-25 14:30:00,37.6,23.3,27.49,SSW,208,3.6,4.0,56,0.00,,---,0.00,VWS V14.01,2013-01-25 22:30:00,
2013-01-25 14:35:00,37.9,24.5,27.49,SSW,198,3.1,3.6,58,0.00,,---,0.00,VWS V14.01,2013-01-25 22:35:00,
2013-01-25 14:40:00,37.9,24.5,27.49,South,189,3.6,3.6,58,0.00,,---,0.00,VWS V14.01,2013-01-25 22:40:00,
2013-01-25 14:45:00,37.9,24.9,27.49,South,179,2.2,2.7,59,0.00,,---,0.00,VWS V14.01,2013-01-25 22:45:00,
2013-01-25 14:50:00,37.8,24.7,27.49,South,191,3.1,4.0,59,0.00,,---,0.00,VWS V14.01,2013-01-25 22:50:00,
2013-01-25 14:55:00,37.8,24.7,27.49,SSW,196,3.1,3.1,59,0.00,,---,0.00,VWS V14.01,2013-01-25 22:55:00,
2013-01-25 15:00:00,37.8,25.1,27.49,South,191,0.0,3.1,60,0.00,,---,0.00,VWS V14.01,2013-01-25 23:00:00,
2013-01-25 15:05:00,37.8,25.1,27.46,South,187,2.7,2.7,60,0.00,,---,0.00,VWS V14.01,2013-01-25 23:05:00,
2013-01-25 15:10:00,37.8,25.1,27.46,South,188,2.7,3.6,60,0.00,,---,0.00,VWS V14.01,2013-01-25 23:10:00,
2013-01-25 15:15:00,37.8,25.5,27.46,SW,223,4.0,4.0,61,0.00,,---,0.00,VWS V14.01,2013-01-25 23:15:00,
2013-01-25 15:20:00,37.8,25.5,27.49,SW,224,5.4,6.3,61,0.00,,---,0.00,VWS V14.01,2013-01-25 23:20:00,
2013-01-25 15:25:00,37.6,25.8,27.49,SSW,209,5.4,6.3,62,0.00,,---,0.00,VWS V14.01,2013-01-25 23:25:00,
2013-01-25 15:30:00,37.6,25.8,27.49,South,181,4.0,4.0,62,0.00,,---,0.00,VWS V14.01,2013-01-25 23:30:00,
2013-01-25 15:35:00,37.8,26.3,27.49,SW,214,3.1,4.0,63,0.00,,---,0.00,VWS V14.01,2013-01-25 23:35:00,
2013-01-25 15:40:00,37.6,26.1,27.49,South,189,5.8,6.3,63,0.00,,---,0.00,VWS V14.01,2013-01-25 23:40:00,
2013-01-25 15:45:00,37.6,26.1,27.49,SSW,210,2.7,3.1,63,0.00,,---,0.00,VWS V14.01,2013-01-25 23:45:00,
2013-01-25 15:50:00,37.4,25.6,27.49,SSW,199,2.7,2.7,62,0.00,,---,0.00,VWS V14.01,2013-01-25 23:50:00,
2013-01-25 15:55:00,37.2,25.4,27.49,SW,214,2.7,3.1,62,0.00,,---,0.00,VWS V14.01,2013-01-25 23:55:00,
2013-01-25 16:00:00,37.4,26.0,27.49,South,189,2.7,2.7,63,0.00,,---,0.00,VWS V14.01,2013-01-26 00:00:00,
2013-01-25 16:05:00,37.2,25.8,27.46,South,185,2.7,2.7,63,0.00,,---,0.00,VWS V14.01,2013-01-26 00:05:00,
2013-01-25 16:10:00,37.2,26.2,27.46,South,186,0.0,0.0,64,0.00,,---,0.00,VWS V14.01,2013-01-26 00:10:00,
2013-01-25 16:15:00,37.2,26.2,27.46,South,187,0.0,0.0,64,0.00,,---,0.00,VWS V14.01,2013-01-26 00:15:00,
2013-01-25 16:20:00,37.2,26.2,27.46,South,188,0.0,0.0,64,0.00,,---,0.00,VWS V14.01,2013-01-26 00:20:00,
2013-01-25 16:25:00,37.0,26.0,27.46,South,187,0.0,0.0,64,0.00,,---,0.00,VWS V14.01,2013-01-26 00:25:00,
2013-01-25 16:30:00,37.0,26.0,27.46,South,188,0.0,0.0,64,0.00,,---,0.00,VWS V14.01,2013-01-26 00:30:00,
2013-01-25 16:35:00,37.0,26.0,27.46,South,187,0.0,0.0,64,0.00,,---,0.00,VWS V14.01,2013-01-26 00:35:00,
2013-01-25 16:40:00,36.9,25.8,27.46,South,187,0.0,0.0,64,0.00,,---,0.00,VWS V14.01,2013-01-26 00:40:00,
2013-01-25 16:45:00,36.7,25.3,27.46,South,188,0.0,0.0,63,0.00,,---,0.00,VWS V14.01,2013-01-26 00:45:00,
2013-01-25 16:50:00,36.3,25.0,27.46,South,188,0.0,0.0,63,0.00,,---,0.00,VWS V14.01,2013-01-26 00:50:00,
2013-01-25 16:55:00,36.3,25.0,27.46,South,188,0.0,0.0,63,0.00,,---,0.00,VWS V14.01,2013-01-26 00:55:00,
2013-01-25 17:00:00,36.3,25.0,27.46,South,188,0.0,0.0,63,0.00,,---,0.00,VWS V14.01,2013-01-26 01:00:00,
2013-01-25 17:05:00,36.3,25.0,27.46,South,188,0.0,0.0,63,0.00,,---,0.00,VWS V14.01,2013-01-26 01:05:00,
2013-01-25 17:10:00,36.1,24.8,27.46,South,187,0.0,0.0,63,0.00,,---,0.00,VWS V14.01,2013-01-26 01:10:00,
2013-01-25 17:15:00,35.8,24.0,27.46,South,188,0.0,0.0,62,0.00,,---,0.00,VWS V14.01,2013-01-26 01:15:00,
2013-01-25 17:20:00,35.8,24.0,27.46,South,188,0.0,0.0,62,0.00,,---,0.00,VWS V14.01,2013-01-26 01:20:00,
2013-01-25 17:25:00,35.8,24.4,27.46,South,188,0.0,0.0,63,0.00,,---,0.00,VWS V14.01,2013-01-26 01:25:00,
2013-01-25 17:30:00,35.8,24.4,27.46,South,188,0.0,0.0,63,0.00,,---,0.00,VWS V14.01,2013-01-26 01:30:00,
2013-01-25 17:35:00,35.8,24.4,27.46,South,188,0.0,0.0,63,0.00,,---,0.00,VWS V14.01,2013-01-26 01:35:00,
2013-01-25 17:40:00,35.8,24.4,27.46,South,187,0.0,0.0,63,0.00,,---,0.00,VWS V14.01,2013-01-26 01:40:00,
2013-01-25 17:45:00,35.8,24.4,27.46,South,188,0.0,0.0,63,0.00,,---,0.00,VWS V14.01,2013-01-26 01:45:00,
2013-01-25 17:50:00,35.8,24.4,27.46,South,188,0.0,0.0,63,0.00,,---,0.00,VWS V14.01,2013-01-26 01:50:00,
2013-01-25 17:55:00,35.6,24.3,27.46,South,188,0.0,0.0,63,0.00,,---,0.00,VWS V14.01,2013-01-26 01:55:00,
2013-01-25 18:00:00,35.6,24.3,27.46,South,187,0.0,0.0,63,0.00,,---,0.00,VWS V14.01,2013-01-26 02:00:00,
2013-01-25 18:05:00,35.6,24.6,27.46,South,187,0.0,0.0,64,0.00,,---,0.00,VWS V14.01,2013-01-26 02:05:00,
2013-01-25 18:10:00,35.6,24.6,27.46,South,188,0.0,0.0,64,0.00,,---,0.00,VWS V14.01,2013-01-26 02:10:00,
2013-01-25 18:15:00,35.6,24.6,27.46,South,188,0.0,0.0,64,0.00,,---,0.00,VWS V14.01,2013-01-26 02:15:00,
2013-01-25 18:20:00,35.8,24.8,27.46,South,188,0.0,0.0,64,0.00,,---,0.00,VWS V14.01,2013-01-26 02:20:00,
2013-01-25 18:25:00,36.0,25.0,27.46,South,188,0.0,0.0,64,0.00,,---,0.00,VWS V14.01,2013-01-26 02:25:00,
2013-01-25 18:30:00,35.8,24.8,27.46,South,188,0.0,0.0,64,0.00,,---,0.00,VWS V14.01,2013-01-26 02:30:00,
2013-01-25 18:35:00,36.0,25.0,27.46,South,188,0.0,0.0,64,0.00,,---,0.00,VWS V14.01,2013-01-26 02:35:00,
2013-01-25 18:40:00,36.0,25.0,27.46,South,188,0.0,0.0,64,0.00,,---,0.00,VWS V14.01,2013-01-26 02:40:00,
2013-01-25 18:45:00,35.8,24.8,27.46,South,188,0.0,0.0,64,0.00,,---,0.00,VWS V14.01,2013-01-26 02:45:00,
2013-01-25 18:50:00,35.8,24.8,27.46,South,188,0.0,0.0,64,0.00,,---,0.00,VWS V14.01,2013-01-26 02:50:00,
2013-01-25 18:55:00,35.8,24.8,27.46,South,188,0.0,0.0,64,0.00,,---,0.00,VWS V14.01,2013-01-26 02:55:00,
2013-01-25 19:00:00,35.8,24.8,27.46,South,188,0.0,0.0,64,0.00,,---,0.00,VWS V14.01,2013-01-26 03:00:00,
2013-01-25 19:05:00,35.8,24.8,27.46,South,188,0.0,0.0,64,0.00,,---,0.00,VWS V14.01,2013-01-26 03:05:00,
2013-01-25 19:10:00,35.8,24.8,27.46,South,187,0.0,0.0,64,0.00,,---,0.00,VWS V14.01,2013-01-26 03:10:00,
2013-01-25 19:15:00,35.8,24.8,27.46,South,188,0.0,0.0,64,0.00,,---,0.00,VWS V14.01,2013-01-26 03:15:00,
2013-01-25 19:19:00,35.8,24.8,27.46,South,188,0.0,0.0,64,0.00,,---,0.00,VWS V14.01,2013-01-26 03:19:00,
2013-01-25 19:24:00,35.8,24.8,27.46,South,188,0.0,0.0,64,0.00,,---,0.00,VWS V14.01,2013-01-26 03:24:00,
2013-01-25 19:29:00,35.8,24.8,27.46,South,188,0.0,0.0,64,0.00,,---,0.00,VWS V14.01,2013-01-26 03:29:00,
2013-01-25 19:34:00,35.6,24.6,27.46,South,188,0.0,0.0,64,0.00,,---,0.00,VWS V14.01,2013-01-26 03:34:00,
2013-01-25 19:39:00,36.0,25.4,27.46,South,188,0.0,0.0,65,0.00,,---,0.00,VWS V14.01,2013-01-26 03:39:00,
2013-01-25 19:44:00,36.1,25.5,27.46,South,184,0.0,0.0,65,0.00,,---,0.00,VWS V14.01,2013-01-26 03:44:00,
2013-01-25 19:50:00,36.1,25.5,27.43,South,184,0.0,0.0,65,0.00,,---,0.00,VWS V14.01,2013-01-26 03:50:00,
2013-01-25 19:54:00,36.1,25.5,27.43,South,184,0.0,0.0,65,0.00,,---,0.00,VWS V14.01,2013-01-26 03:54:00,
2013-01-25 19:59:00,36.3,25.7,27.43,South,184,0.0,0.0,65,0.00,,---,0.00,VWS V14.01,2013-01-26 03:59:00,
2013-01-25 20:04:00,36.3,25.7,27.43,South,184,0.0,0.0,65,0.00,,---,0.00,VWS V14.01,2013-01-26 04:04:00,
2013-01-25 20:09:00,36.3,25.7,27.43,South,184,0.0,0.0,65,0.00,,---,0.00,VWS V14.01,2013-01-26 04:09:00,
2013-01-25 20:14:00,36.3,25.7,27.43,South,184,0.0,0.0,65,0.00,,---,0.00,VWS V14.01,2013-01-26 04:14:00,
2013-01-25 20:19:00,36.1,25.5,27.43,South,184,0.0,0.0,65,0.00,,---,0.00,VWS V14.01,2013-01-26 04:19:00,
2013-01-25 20:24:00,36.1,25.5,27.43,South,184,0.0,0.0,65,0.00,,---,0.00,VWS V14.01,2013-01-26 04:24:00,
2013-01-25 20:29:00,36.1,25.1,27.43,South,184,0.0,0.0,64,0.00,,---,0.00,VWS V14.01,2013-01-26 04:29:00,
2013-01-25 20:35:00,36.1,25.5,27.43,South,184,0.0,0.0,65,0.00,,---,0.00,VWS V14.01,2013-01-26 04:35:00,
2013-01-25 20:40:00,36.1,25.5,27.43,South,184,0.0,0.0,65,0.00,,---,0.00,VWS V14.01,2013-01-26 04:40:00,
2013-01-25 20:45:00,36.1,25.5,27.43,South,183,0.0,0.0,65,0.00,,---,0.00,VWS V14.01,2013-01-26 04:45:00,
2013-01-25 20:51:00,36.1,25.5,27.43,South,184,0.0,0.0,65,0.00,,---,0.00,VWS V14.01,2013-01-26 04:51:00,
2013-01-25 20:56:00,36.1,25.5,27.43,South,184,0.0,0.0,65,0.00,,---,0.00,VWS V14.01,2013-01-26 04:56:00,
2013-01-25 21:04:00,35.8,24.8,27.43,South,184,0.0,0.0,64,0.00,,---,0.00,VWS V14.01,2013-01-26 05:04:00,
2013-01-25 21:09:00,35.8,24.8,27.43,South,184,0.0,0.0,64,0.00,,---,0.00,VWS V14.01,2013-01-26 05:09:00,
2013-01-25 21:14:00,35.6,24.6,27.43,South,184,0.0,0.0,64,0.00,,---,0.00,VWS V14.01,2013-01-26 05:14:00,
2013-01-25 21:19:00,35.6,24.6,27.43,South,184,0.0,0.0,64,0.00,,---,0.00,VWS V14.01,2013-01-26 05:19:00,
2013-01-25 21:24:00,35.8,25.2,27.43,South,184,0.0,0.0,65,0.00,,---,0.00,VWS V14.01,2013-01-26 05:24:00,
2013-01-25 21:29:00,35.8,25.2,27.43,South,184,0.0,0.0,65,0.00,,---,0.00,VWS V14.01,2013-01-26 05:29:00,
2013-01-25 21:34:00,35.8,25.2,27.43,South,184,0.0,0.0,65,0.00,,---,0.00,VWS V14.01,2013-01-26 05:34:00,
2013-01-25 21:39:00,36.0,25.7,27.43,South,183,0.0,0.0,66,0.00,,---,0.00,VWS V14.01,2013-01-26 05:39:00,
2013-01-25 21:44:00,36.0,25.7,27.43,South,184,0.0,0.0,66,0.00,,---,0.00,VWS V14.01,2013-01-26 05:44:00,
2013-01-25 21:49:00,36.0,25.7,27.43,South,184,0.0,0.0,66,0.00,,---,0.00,VWS V14.01,2013-01-26 05:49:00,
2013-01-25 21:54:00,36.0,25.7,27.43,South,184,0.0,0.0,66,0.00,,---,0.00,VWS V14.01,2013-01-26 05:54:00,
2013-01-25 21:59:00,36.1,25.9,27.43,South,184,0.0,0.0,66,0.00,,---,0.00,VWS V14.01,2013-01-26 05:59:00,
2013-01-25 22:04:00,36.1,25.9,27.43,South,184,0.0,0.0,66,0.00,,---,0.00,VWS V14.01,2013-01-26 06:04:00,
2013-01-25 22:09:00,36.1,25.9,27.43,South,184,0.0,0.0,66,0.00,,---,0.00,VWS V14.01,2013-01-26 06:09:00,
2013-01-25 22:14:00,36.1,26.3,27.43,South,184,0.0,0.0,67,0.00,,---,0.00,VWS V14.01,2013-01-26 06:14:00,
2013-01-25 22:19:00,36.1,26.3,27.43,South,184,0.0,0.0,67,0.00,,---,0.00,VWS V14.01,2013-01-26 06:19:00,
2013-01-25 22:24:00,36.1,26.3,27.43,South,184,0.0,0.0,67,0.00,,---,0.00,VWS V14.01,2013-01-26 06:24:00,
2013-01-25 22:29:00,36.1,26.3,27.43,South,184,0.0,0.0,67,0.00,,---,0.00,VWS V14.01,2013-01-26 06:29:00,
2013-01-25 22:34:00,36.1,26.3,27.43,South,184,0.0,0.0,67,0.00,,---,0.00,VWS V14.01,2013-01-26 06:34:00,
2013-01-25 22:39:00,36.1,26.3,27.43,South,184,0.0,0.0,67,0.00,,---,0.00,VWS V14.01,2013-01-26 06:39:00,
2013-01-25 22:44:00,36.1,26.3,27.43,South,184,0.0,0.0,67,0.00,,---,0.00,VWS V14.01,2013-01-26 06:44:00,
2013-01-25 22:49:00,36.1,26.3,27.43,South,184,0.0,0.0,67,0.00,,---,0.00,VWS V14.01,2013-01-26 06:49:00,
2013-01-25 22:54:00,36.1,26.3,27.43,South,184,0.0,0.0,67,0.00,,---,0.00,VWS V14.01,2013-01-26 06:54:00,
2013-01-25 22:59:00,36.1,26.3,27.43,South,184,0.0,0.0,67,0.00,,---,0.00,VWS V14.01,2013-01-26 06:59:00,
2013-01-25 23:04:00,36.1,26.3,27.43,South,183,0.0,0.0,67,0.00,,---,0.00,VWS V14.01,2013-01-26 07:04:00,
2013-01-25 23:09:00,36.1,26.6,27.43,SSW,198,3.1,3.1,68,0.00,,---,0.00,VWS V14.01,2013-01-26 07:09:00,
2013-01-25 23:14:00,36.1,26.6,27.43,SSW,198,0.0,0.0,68,0.00,,---,0.00,VWS V14.01,2013-01-26 07:14:00,
2013-01-25 23:19:00,36.0,26.4,27.43,SSW,198,0.0,0.0,68,0.00,,---,0.00,VWS V14.01,2013-01-26 07:19:00,
2013-01-25 23:24:00,36.0,26.4,27.43,SSW,198,0.0,0.0,68,0.00,,---,0.00,VWS V14.01,2013-01-26 07:24:00,
2013-01-25 23:29:00,36.0,26.4,27.43,SSW,198,0.0,0.0,68,0.00,,---,0.00,VWS V14.01,2013-01-26 07:29:00,
2013-01-25 23:34:00,36.0,26.4,27.43,SSW,199,0.0,0.0,68,0.00,,---,0.00,VWS V14.01,2013-01-26 07:34:00,
2013-01-25 23:39:00,36.1,26.6,27.43,South,185,0.0,2.2,68,0.00,,---,0.00,VWS V14.01,2013-01-26 07:39:00,
2013-01-25 23:44:00,36.1,26.6,27.43,South,188,2.7,2.7,68,0.00,,---,0.00,VWS V14.01,2013-01-26 07:44:00,
2013-01-25 23:49:00,36.1,26.6,27.43,South,186,3.1,4.0,68,0.00,,---,0.00,VWS V14.01,2013-01-26 07:49:00,
2013-01-25 23:54:00,36.1,26.6,27.43,SSW,210,2.7,4.0,68,0.00,,---,0.00,VWS V14.01,2013-01-26 07:54:00,
2013-01-25 23:59:00,36.0,26.4,27.43,SSW,211,4.0,4.0,68,0.00,,---,0.00,VWS V14.01,2013-01-26 07:59:00,